Hamadan, Iran

11:17 PM +0430 on May 25, 2017 (GMT +0430)
Hamadan

Weather History for OIHH - May, 2013

Change the Weather History Date:

Wednesday, May 15, 2013

  Actual Average Record
Temperature  
Mean Temperature 54 °F -  
Max Temperature 66 °F - - ()
Min Temperature 41 °F - - ()
Degree Days  
Heating Degree Days 12    
Growing Degree Days 4 (Base 50)    
Moisture  
Dew Point 37 °F    
Average Humidity 61    
Maximum Humidity 81    
Minimum Humidity 32    
Precipitation  
Precipitation 0.00 in - - ()
Sea Level Pressure  
Sea Level Pressure 30.06 in    
Wind  
Wind Speed 4 mph ()    
Max Wind Speed 23 mph    
Max Gust Speed -    
Visibility 6.2 miles    
Events      
T = Trace of Precipitation, MM = Missing Value Source: Averaged Metar Reports

Daily Weather History Graph

Daily Weather History Graph

Search for Another Location

Airport or City:

Trip Planner

Search our weather history database for the weather conditions in past years. The results will help you decide how hot, cold, wet, or windy it might be!

Date:

Astronomy

May. 15, 2013 Rise Set
Actual Time 6:12 AM +0430 8:12 PM +0430
Civil Twilight 5:44 AM +0430 8:40 PM +0430
Nautical Twilight 5:10 AM +0430 9:14 PM +0430
Astronomical Twilight 4:34 AM +0430 9:50 PM +0430
Moon 10:25 AM +0430 (5/15) 12:23 AM +0430 (5/16)
Length of Visible Light 14h 55m
Length of Day
13h 59m
Waxing Crescent, 24% of the Moon is Illuminated
May 15
Waxing Crescent
May 18
First Quarter
May 25
Full
May 31
Last Quarter
Jun 8
New

Hourly Weather History & Observations

Time (+0430) Temp. Windchill Dew Point Humidity Pressure Visibility Wind Dir Wind Speed Gust Speed Precip Events Conditions
12:30 AM 51.8 °F - 39.2 °F 62% 30.06 in 6.2 mi NNW 4.6 mph - N/A   Partly Cloudy
1:30 AM 46.4 °F 44.3 °F 37.4 °F 71% 30.06 in 6.2 mi East 4.6 mph - N/A   Partly Cloudy
2:30 AM 44.6 °F - 37.4 °F 76% 30.09 in 6.2 mi Calm Calm - N/A   Partly Cloudy
3:30 AM 42.8 °F - 35.6 °F 76% 30.06 in 6.2 mi Calm Calm - N/A   Partly Cloudy
4:30 AM 41.0 °F - 35.6 °F 81% 30.04 in 6.2 mi Calm Calm - N/A   Partly Cloudy
5:30 AM 41.0 °F - 35.6 °F 81% 30.04 in 6.2 mi Calm Calm - N/A   Partly Cloudy
6:30 AM 41.0 °F - 35.6 °F 81% 30.06 in 6.2 mi Calm Calm - N/A   Partly Cloudy
7:30 AM 42.8 °F 40.1 °F 35.6 °F 76% 30.06 in 6.2 mi SW 4.6 mph - N/A   Mostly Cloudy
8:30 AM 50.0 °F - 37.4 °F 62% 30.06 in 6.2 mi South 4.6 mph - N/A   Mostly Cloudy
9:30 AM 53.6 °F - 37.4 °F 54% 30.09 in 6.2 mi NW 4.6 mph - N/A   Mostly Cloudy
10:30 AM 55.4 °F - 39.2 °F 54% 30.09 in 6.2 mi North 4.6 mph - N/A   Mostly Cloudy
11:30 AM 62.6 °F - 35.6 °F 37% 30.06 in 6.2 mi West 4.6 mph - N/A   Mostly Cloudy
12:30 PM 64.4 °F - 37.4 °F 37% 30.04 in 6.2 mi WSW 4.6 mph - N/A   Mostly Cloudy
1:30 PM 64.4 °F - 37.4 °F 37% 30.04 in 6.2 mi SW 6.9 mph - N/A   Mostly Cloudy
2:30 PM 66.2 °F - 35.6 °F 32% 30.04 in 6.2 mi SSW 9.2 mph - N/A   Mostly Cloudy
6:30 PM 62.6 °F - 35.6 °F 37% 30.01 in 6.2 mi WNW 9.2 mph - N/A   Scattered Clouds
7:30 PM 60.8 °F - 37.4 °F 42% 30.01 in 6.2 mi NW 23.0 mph - N/A   Scattered Clouds
8:30 PM 53.6 °F - 41.0 °F 62% 30.04 in 6.2 mi WNW 11.5 mph - N/A   Mostly Cloudy
9:30 PM 50.0 °F - 41.0 °F 71% 30.09 in 6.2 mi WSW 4.6 mph - N/A   Mostly Cloudy
10:30 PM 48.2 °F - 39.2 °F 71% 30.06 in 6.2 mi Calm Calm - N/A   Partly Cloudy
11:30 PM 44.6 °F 42.2 °F 39.2 °F 81% 30.12 in 6.2 mi South 4.6 mph - N/A   Partly Cloudy